COSMOS 2251 DEB, 38060

Orbit data source: Space-Track

COSMOS 2251 DEB, 38060 is space debris in LEO originally from a launch on Wed, 16 Jun 1993 UTC launched from the Plesetsk Missile And Space Complex (PKMTR). The debris from Iridium 33, an American commercial communications satellite, has been tracked extensively since its accidental collision with the defunct Russian satellite Cosmos 2251 in 2009. This event, occurring at high speed in low Earth orbit (LEO), generated thousands of pieces of space debris, significantly increasing the risk of further collisions. The Iridium 33 debris cloud has impacted space traffic management and orbital debris mitigation strategies, making it a subject of ongoing study in space situational awareness.

Loading next visibility...
Identifier
38060, 1993-036BRS
Orbit
LEO
Country
Flag of CISCIS
Related business
Manufacturer
Unknown
Mission
Spacecraft
Bus & Motor
Unknown
Mass
Unknown
Launch date (UTC)
1993-06-16 (33 years ago)
Launch vehicle
Unknown
Launch site
Plesetsk Missile And Space Complex (PKMTR)
Object type
Payload
Rocket body
Debris
Shape & HBR
Unknown shape, 0.1 m
Radar Cross Section
Small (<0.1 m²)

Expand to show TLE details & history
Last TLE update: 2 days ago

TLE from 2 days ago
0 COSMOS 2251 DEB
1 38060U 93036BRS 25352.53607036  .00002314  00000-0  43765-3 0  9993
2 38060  74.0432 284.1799 0058382  28.6870 331.7487 14.63889679720492
Epoch: 2025-12-18T12:51Z
TLE epoch observation values (Epoch: 2025-12-18T12:51:56.479Z)
Latitude
-0.00003°
Longitude
3.80439°
Altitude
647.034 km
Speed
7.554 km/s
True Right ascension
18h 56m 43s
True Declination
0° 00' 00"
Sunlit
Object was in daylight at epoch
Visualization orbit readout
Latitude
Unknown
Longitude
Unknown
Altitude
Unknown
Speed
Unknown
Apparent Right ascension
Unknown
Apparent Declination
Unknown
Sunlit
N/A
Visualization observer readout
Local Sidereal Time
05:22:27
Azimuth
Unknown
Elevation
Unknown
Doppler factor
Unknown
Orbital elements
Apogee altitude
719.431 km
Perigee altitude
637.038 km
Semi-major axis
7,056.372 km
Eccentricity
0.00584
Inclination
74.0432°
RAAN
284.1799°
Arg. of periapsis
28.687°
True anomaly
331.42999°
Mean anomaly
331.7487°
Eccentric anomaly
331.58955°
Mean motion
3.6616 °/min
Orbital period
98.32 mins
BSTAR
0.00043765
Loading maneuver chart data...
Computing Atmospheric mass density...

Documentation

Showing up to 5 results
|